Albany, NY

9:05 AM EST on December 09, 2019 (GMT -0500)
Albany International

Weather History for KALB - October, 2019

Change the Weather History Date:

Tuesday, October 22, 2019

  Actual Average Record
Temperature  
Mean Temperature 51 °F 48 °F  
Max Temperature 59 °F 57 °F 86 °F (1979)
Min Temperature 43 °F 38 °F 20 °F (1948)
Degree Days  
Heating Degree Days 14 18  
Month to date heating degree days 265 307  
Since 1 July heating degree days 342 474  
Cooling Degree Days 0 0  
Month to date cooling degree days 4 0  
Year to date cooling degree days 771 594  
Growing Degree Days 1 (Base 50)    
Moisture  
Dew Point 47 °F    
Average Humidity 77    
Maximum Humidity 89    
Minimum Humidity 59    
Precipitation  
Precipitation 0.27 in 0.11 in 1.21 in (2016)
Month to date precipitation 5.65 2.65  
Year to date precipitation 36.86 32.10  
Snow  
Snow 0.00 in 0.00 in T in (2005)
Month to date snowfall 0.0 0.2  
Since 1 July snowfall 0.0 0.2  
Since 1 September snowfall 0.0 0.2  
Snow Depth 0.00 in    
Sea Level Pressure  
Sea Level Pressure 29.98 in    
Wind  
Wind Speed 4 mph ()    
Max Wind Speed 16 mph    
Max Gust Speed 24 mph    
Visibility 9.2 miles    
Events Fog , Rain    
T = Trace of Precipitation, MM = Missing Value Source: Averaged Metar Reports

Daily Weather History Graph

Daily Weather History Graph

Search for Another Location

Airport or City:

Astronomy

Oct. 22, 2019 Rise Set
Actual Time 7:16 AM EDT 6:02 PM EDT
Civil Twilight 6:47 AM EDT 6:30 PM EDT
Nautical Twilight 6:14 AM EDT 7:03 PM EDT
Astronomical Twilight 5:42 AM EDT 7:36 PM EDT
Moon 12:11 AM EDT (10/22) 3:20 PM EDT (10/22)
Length of Visible Light 11h 43m
Length of Day
10h 45m
Last Quarter, 37% of the Moon is Illuminated
Oct 22
Last Quarter
Oct 27
New
Nov 4
First Quarter
Nov 12
Full
Nov 19
Last Quarter

Hourly Weather History & Observations

Time (EDT) Temp. Windchill Dew Point Humidity Pressure Visibility Wind Dir Wind Speed Gust Speed Precip Events Conditions
12:51 AM 44.1 °F - 41.0 °F 89% 30.13 in 8.0 mi Calm Calm - N/A Fog Patches of Fog
1:51 AM 44.1 °F - 41.0 °F 89% 30.13 in 10.0 mi Calm Calm - N/A Fog Patches of Fog
2:51 AM 43.0 °F 41.3 °F 39.0 °F 86% 30.12 in 10.0 mi SSW 3.5 mph - N/A Fog Shallow Fog
3:51 AM 48.0 °F - 44.1 °F 86% 30.11 in 10.0 mi SW 4.6 mph - N/A   Overcast
4:51 AM 50.0 °F - 45.0 °F 83% 30.09 in 10.0 mi SSE 4.6 mph - N/A   Overcast
5:51 AM 48.9 °F - 44.1 °F 83% 30.10 in 10.0 mi SSW 6.9 mph - N/A   Overcast
6:51 AM 50.0 °F - 44.1 °F 80% 30.06 in 10.0 mi SSE 5.8 mph - N/A   Overcast
7:51 AM 50.0 °F - 44.1 °F 80% 30.12 in 10.0 mi SSW 6.9 mph - N/A   Overcast
8:51 AM 51.1 °F - 44.1 °F 77% 30.07 in 10.0 mi ESE 6.9 mph - N/A   Overcast
9:51 AM 54.0 °F - 42.1 °F 64% 30.05 in 10.0 mi South 9.2 mph - N/A   Overcast
10:51 AM 55.0 °F - 41.0 °F 59% 30.06 in 10.0 mi South 8.1 mph - N/A   Overcast
11:51 AM 55.9 °F - 43.0 °F 62% 30.04 in 10.0 mi South 6.9 mph - N/A   Overcast
12:51 PM 57.0 °F - 45.0 °F 64% 30.02 in 10.0 mi SW 8.1 mph - N/A   Overcast
1:51 PM 57.0 °F - 45.0 °F 64% 29.98 in 10.0 mi SE 3.5 mph - N/A   Overcast
2:18 PM 57.9 °F - 46.0 °F 65% 29.96 in 10.0 mi South 4.6 mph - N/A   Overcast
2:51 PM 57.9 °F - 46.9 °F 67% 29.94 in 10.0 mi SE 5.8 mph - N/A   Overcast
3:51 PM 59.0 °F - 50.0 °F 72% 29.91 in 10.0 mi SE 5.8 mph - N/A   Overcast
4:51 PM 59.0 °F - 48.9 °F 69% 29.91 in 10.0 mi SSE 11.5 mph 23.0 mph N/A   Overcast
5:51 PM 57.9 °F - 48.9 °F 72% 29.92 in 10.0 mi South 9.2 mph 17.3 mph N/A   Overcast
6:51 PM 57.0 °F - 48.9 °F 74% 29.92 in 10.0 mi South 8.1 mph 16.1 mph 0.00 in Rain Light Rain
7:51 PM 55.9 °F - 50.0 °F 80% 29.91 in 9.0 mi Calm Calm - 0.02 in Rain Light Rain
8:51 PM 55.9 °F - 51.1 °F 84% 29.88 in 7.0 mi South 5.8 mph - 0.01 in Rain Light Rain
9:13 PM 55.9 °F - 51.1 °F 84% 29.87 in 2.5 mi SSE 5.8 mph - 0.06 in Rain Rain
9:20 PM 55.9 °F - 51.1 °F 84% 29.86 in 3.0 mi SE 5.8 mph - 0.09 in Rain Rain
9:51 PM 55.9 °F - 52.0 °F 87% 29.86 in 8.0 mi SSE 4.6 mph - 0.13 in Rain Light Rain
10:05 PM 55.9 °F - 52.0 °F 87% 29.85 in 10.0 mi SSE 5.8 mph - 0.00 in Rain Light Rain
10:51 PM 55.9 °F - 52.0 °F 87% 29.83 in 10.0 mi SSE 4.6 mph - 0.01 in   Overcast
11:51 PM 55.9 °F - 52.0 °F 87% 29.81 in 10.0 mi SSW 5.8 mph - 0.00 in Rain Light Rain